| time (UTC) | temp C | wind direction | speed KPH | gust KPH | rain 1hr cm | rain 24hr cm | rain mn cm | humidity % | barometer mb |
| 20260506034004 | 24 | 235 | 1.6 | 8.0 | 0.00 | 0.00 | 0.00 | 85 | 1008.5 |
| 20260506033002 | 24 | 217 | 1.6 | 3.2 | 0.00 | 0.00 | 0.00 | 85 | 1008.3 |
| 20260506032504 | 24 | 221 | 1.6 | 4.8 | 0.00 | 0.00 | 0.00 | 85 | 1008.1 |
| 20260506032004 | 24 | 179 | 1.6 | 6.4 | 0.00 | 0.00 | 0.00 | 84 | 1008.0 |
| 20260506031505 | 24 | 202 | 1.6 | 6.4 | 0.00 | 0.00 | 0.00 | 84 | 1008.0 |
| 20260506031004 | 24 | 210 | 1.6 | 8.0 | 0.00 | 0.00 | 0.00 | 84 | 1008.0 |
| 20260506030504 | 24 | 162 | 3.2 | 8.0 | 0.00 | 0.00 | 0.00 | 84 | 1007.9 |
| 20260506030005 | 24 | 190 | 1.6 | 8.0 | 0.00 | 0.00 | 0.00 | 84 | 1007.7 |
| 20260506025504 | 24 | 197 | 3.2 | 6.4 | 0.00 | 0.00 | 0.00 | 84 | 1007.7 |
| 20260506025005 | 24 | 261 | 3.2 | 12.9 | 0.00 | 0.00 | 0.00 | 84 | 1007.5 |
| 20260506024505 | 24 | 193 | 3.2 | 12.9 | 0.00 | 0.00 | 0.00 | 84 | 1007.4 |
| 20260506024004 | 24 | 54 | 1.6 | 8.0 | 0.00 | 0.00 | 0.00 | 84 | 1007.4 |
| 20260506023504 | 24 | 209 | 3.2 | 8.0 | 0.00 | 0.00 | 0.00 | 84 | 1007.3 |
| 20260506023004 | 25 | 222 | 3.2 | 16.1 | 0.00 | 0.00 | 0.00 | 84 | 1007.2 |
| 20260506022504 | 25 | 159 | 3.2 | 16.1 | 0.00 | 0.00 | 0.00 | 84 | 1007.2 |
| 20260506022003 | 25 | 221 | 3.2 | 14.5 | 0.00 | 0.00 | 0.00 | 83 | 1007.1 |
| 20260506021504 | 25 | 173 | 3.2 | 14.5 | 0.00 | 0.00 | 0.00 | 83 | 1007.1 |
| 20260506021004 | 25 | 242 | 1.6 | 8.0 | 0.00 | 0.00 | 0.00 | 83 | 1007.1 |
| 20260506015003 | 25 | 198 | 1.6 | 8.0 | 0.00 | 0.00 | 0.00 | 83 | 1006.8 |
| 20260506014502 | 25 | 223 | 3.2 | 8.0 | 0.00 | 0.00 | 0.00 | 83 | 1006.8 |
| 20260506014004 | 25 | 196 | 3.2 | 6.4 | 0.00 | 0.00 | 0.00 | 83 | 1006.7 |
| 20260506013503 | 25 | 192 | 3.2 | 12.9 | 0.00 | 0.00 | 0.00 | 82 | 1006.7 |
| 20260506013003 | 25 | 179 | 3.2 | 12.9 | 0.00 | 0.00 | 0.00 | 82 | 1006.6 |
| 20260506012503 | 25 | 219 | 3.2 | 12.9 | 0.00 | 0.00 | 0.00 | 82 | 1006.6 |
| 20260506012003 | 25 | 194 | 3.2 | 14.5 | 0.00 | 0.00 | 0.00 | 82 | 1006.5 |
| 20260506011503 | 25 | 122 | 3.2 | 14.5 | 0.00 | 0.00 | 0.00 | 82 | 1006.5 |
| 20260506011003 | 25 | 170 | 3.2 | 14.5 | 0.00 | 0.00 | 0.00 | 82 | 1006.4 |
| 20260506010504 | 25 | 211 | 3.2 | 14.5 | 0.00 | 0.00 | 0.00 | 81 | 1006.4 |
| 20260506010003 | 25 | 155 | 1.6 | 14.5 | 0.00 | 0.00 | 0.00 | 81 | 1006.3 |
| 20260506005503 | 25 | 231 | 1.6 | 4.8 | 0.00 | 0.00 | 0.00 | 81 | 1006.2 |
| 20260506005003 | 25 | 229 | 3.2 | 8.0 | 0.00 | 0.00 | 0.00 | 81 | 1006.1 |
| 20260506004503 | 25 | 171 | 3.2 | 12.9 | 0.00 | 0.00 | 0.00 | 80 | 1006.1 |
| 20260506004003 | 25 | 190 | 3.2 | 14.5 | 0.00 | 0.00 | 0.00 | 80 | 1006.0 |
| 20260506002502 | 26 | 225 | 3.2 | 19.3 | 0.00 | 0.00 | 0.00 | 79 | 1006.0 |
| 20260506002003 | 26 | 171 | 3.2 | 9.7 | 0.00 | 0.00 | 0.00 | 79 | 1005.9 |
| 20260506001504 | 26 | 59 | 3.2 | 9.7 | 0.00 | 0.00 | 0.00 | 79 | 1005.9 |
| 20260506000503 | 26 | 146 | 6.4 | 17.7 | 0.00 | 0.00 | 0.00 | 78 | 1005.8 |
| 20260506000002 | 26 | 184 | 4.8 | 14.5 | 0.00 | 0.00 | 0.00 | 77 | 1005.7 |
| 20260505235503 | 26 | 176 | 3.2 | 11.3 | 0.00 | 0.00 | 0.00 | 77 | 1005.6 |
| 20260505235003 | 26 | 92 | 3.2 | 11.3 | 0.00 | 0.00 | 0.00 | 77 | 1005.6 |
| 20260505234502 | 26 | 217 | 4.8 | 22.5 | 0.00 | 0.00 | 0.00 | 77 | 1005.6 |
| 20260505233503 | 26 | 180 | 4.8 | 16.1 | 0.00 | 0.00 | 0.00 | 77 | 1005.6 |
| 20260505232502 | 27 | 144 | 4.8 | 16.1 | 0.00 | 0.00 | 0.00 | 76 | 1005.6 |
| 20260505232004 | 27 | 215 | 4.8 | 16.1 | 0.00 | 0.00 | 0.00 | 75 | 1005.6 |
| 20260505231502 | 27 | 118 | 4.8 | 14.5 | 0.00 | 0.00 | 0.00 | 74 | 1005.6 |
| 20260505231003 | 27 | 172 | 4.8 | 12.9 | 0.00 | 0.00 | 0.00 | 74 | 1005.5 |
| 20260505230503 | 27 | 169 | 4.8 | 12.9 | 0.00 | 0.00 | 0.00 | 74 | 1005.5 |
| 20260505230002 | 27 | 159 | 4.8 | 17.7 | 0.00 | 0.00 | 0.00 | 74 | 1005.6 |
| 20260505225002 | 27 | 205 | 6.4 | 22.5 | 0.00 | 0.00 | 0.00 | 74 | 1005.5 |
| 20260505224502 | 27 | 170 | 4.8 | 22.5 | 0.00 | 0.00 | 0.00 | 74 | 1005.3 |
| 20260505224002 | 27 | 201 | 4.8 | 14.5 | 0.00 | 0.00 | 0.00 | 73 | 1005.3 |
| 20260505223504 | 27 | 224 | 6.4 | 16.1 | 0.00 | 0.00 | 0.00 | 74 | 1005.5 |
| 20260505223002 | 28 | 164 | 6.4 | 16.1 | 0.00 | 0.00 | 0.00 | 73 | 1005.5 |
| 20260505222502 | 28 | 215 | 6.4 | 19.3 | 0.00 | 0.00 | 0.00 | 73 | 1005.6 |
| 20260505222002 | 27 | 171 | 6.4 | 17.7 | 0.00 | 0.00 | 0.00 | 73 | 1005.7 |
| 20260505221502 | 27 | 159 | 6.4 | 17.7 | 0.00 | 0.00 | 0.00 | 73 | 1005.6 |
| 20260505221003 | 28 | 180 | 4.8 | 16.1 | 0.00 | 0.00 | 0.00 | 73 | 1005.7 |
| 20260505220501 | 28 | 171 | 4.8 | 14.5 | 0.00 | 0.00 | 0.00 | 72 | 1005.8 |
| 20260505215502 | 28 | 213 | 4.8 | 17.7 | 0.00 | 0.00 | 0.00 | 72 | 1005.8 |
| 20260505215003 | 28 | 224 | 4.8 | 17.7 | 0.00 | 0.00 | 0.00 | 71 | 1005.8 |
| 20260505214001 | 28 | 209 | 4.8 | 17.7 | 0.00 | 0.00 | 0.00 | 71 | 1005.9 |
| 20260505213502 | 28 | 105 | 4.8 | 14.5 | 0.00 | 0.00 | 0.00 | 70 | 1006.0 |
| 20260505213002 | 28 | 119 | 6.4 | 19.3 | 0.00 | 0.00 | 0.00 | 70 | 1006.2 |
| 20260505212502 | 28 | 146 | 6.4 | 19.3 | 0.00 | 0.00 | 0.00 | 71 | 1006.2 |
| 20260505212001 | 28 | 229 | 6.4 | 27.4 | 0.00 | 0.00 | 0.00 | 72 | 1006.2 |
| 20260505211501 | 28 | 169 | 4.8 | 27.4 | 0.00 | 0.00 | 0.00 | 71 | 1006.3 |
| 20260505211003 | 28 | 144 | 3.2 | 11.3 | 0.00 | 0.00 | 0.00 | 73 | 1006.4 |
| 20260505210006 | 28 | 172 | 4.8 | 14.5 | 0.00 | 0.00 | 0.00 | 72 | 1006.7 |
| 20260505205503 | 28 | 217 | 4.8 | 14.5 | 0.00 | 0.00 | 0.00 | 72 | 1006.8 |
| 20260505205002 | 28 | 198 | 4.8 | 16.1 | 0.00 | 0.00 | 0.00 | 72 | 1006.9 |
| 20260505204502 | 28 | 119 | 4.8 | 16.1 | 0.00 | 0.00 | 0.00 | 71 | 1007.0 |
| 20260505204002 | 28 | 163 | 4.8 | 16.1 | 0.00 | 0.00 | 0.00 | 71 | 1007.1 |
| 20260505203502 | 28 | 201 | 4.8 | 14.5 | 0.00 | 0.00 | 0.00 | 73 | 1007.2 |
| 20260505203002 | 28 | 227 | 6.4 | 12.9 | 0.00 | 0.00 | 0.00 | 71 | 1007.2 |
| 20260505202003 | 28 | 221 | 6.4 | 24.1 | 0.00 | 0.00 | 0.00 | 71 | 1007.3 |
| 20260505201002 | 28 | 188 | 4.8 | 17.7 | 0.00 | 0.00 | 0.00 | 71 | 1007.4 |
| 20260505200501 | 28 | 119 | 4.8 | 17.7 | 0.00 | 0.00 | 0.00 | 71 | 1007.4 |
| 20260505195502 | 28 | 203 | 4.8 | 16.1 | 0.00 | 0.00 | 0.00 | 70 | 1007.6 |
| 20260505195004 | 28 | 187 | 4.8 | 17.7 | 0.00 | 0.00 | 0.00 | 71 | 1007.6 |
| 20260505194502 | 28 | 171 | 4.8 | 17.7 | 0.00 | 0.00 | 0.00 | 71 | 1007.7 |
| 20260505194002 | 28 | 86 | 4.8 | 14.5 | 0.00 | 0.00 | 0.00 | 71 | 1007.8 |
| 20260505193502 | 28 | 173 | 4.8 | 17.7 | 0.00 | 0.00 | 0.00 | 71 | 1007.7 |
| 20260505193004 | 28 | 128 | 3.2 | 12.9 | 0.00 | 0.00 | 0.00 | 73 | 1007.8 |
| 20260505192002 | 28 | 157 | 4.8 | 20.9 | 0.00 | 0.00 | 0.00 | 73 | 1007.9 |
| 20260505191002 | 28 | 227 | 3.2 | 17.7 | 0.00 | 0.00 | 0.00 | 73 | 1008.1 |
| 20260505190503 | 28 | 202 | 6.4 | 17.7 | 0.00 | 0.00 | 0.00 | 73 | 1008.0 |
| 20260505190003 | 28 | 201 | 6.4 | 19.3 | 0.00 | 0.00 | 0.00 | 71 | 1008.0 |
| 20260505184500 | 28 | 141 | 6.4 | 12.9 | 0.00 | 0.00 | 0.00 | 73 | 1008.1 |
| 20260505184002 | 28 | 220 | 6.4 | 16.1 | 0.00 | 0.00 | 0.00 | 72 | 1008.2 |
| 20260505183501 | 28 | 186 | 6.4 | 17.7 | 0.00 | 0.00 | 0.00 | 72 | 1008.2 |
| 20260505183001 | 28 | 215 | 8.0 | 22.5 | 0.00 | 0.00 | 0.00 | 73 | 1008.2 |
| 20260505182501 | 28 | 211 | 8.0 | 22.5 | 0.00 | 0.00 | 0.00 | 72 | 1008.2 |
| 20260505182001 | 28 | 185 | 6.4 | 19.3 | 0.00 | 0.00 | 0.00 | 72 | 1008.3 |
| 20260505181502 | 28 | 234 | 6.4 | 16.1 | 0.00 | 0.00 | 0.00 | 74 | 1008.3 |
| 20260505181001 | 27 | 199 | 4.8 | 16.1 | 0.00 | 0.00 | 0.00 | 75 | 1008.3 |
| 20260505180502 | 27 | 215 | 6.4 | 19.3 | 0.00 | 0.00 | 0.00 | 78 | 1008.4 |
| 20260505180000 | 26 | 264 | 6.4 | 24.1 | 0.00 | 0.00 | 0.00 | 78 | 1008.4 |
| 20260505175459 | 26 | 243 | 6.4 | 24.1 | 0.00 | 0.00 | 0.00 | 77 | 1008.5 |
| 20260505175000 | 26 | 255 | 6.4 | 17.7 | 0.00 | 0.00 | 0.00 | 77 | 1008.5 |
| 20260505174000 | 26 | 231 | 6.4 | 14.5 | 0.00 | 0.00 | 0.00 | 77 | 1008.6 |
| 20260505173500 | 26 | 171 | 8.0 | 17.7 | 0.00 | 0.00 | 0.00 | 77 | 1008.7 |
| 20260505173000 | 26 | 228 | 6.4 | 14.5 | 0.00 | 0.00 | 0.00 | 78 | 1008.7 |
| 20260505172500 | 26 | 231 | 4.8 | 12.9 | 0.00 | 0.00 | 0.00 | 78 | 1008.6 |
| 20260505172000 | 26 | 232 | 6.4 | 14.5 | 0.00 | 0.00 | 0.00 | 78 | 1008.6 |
| 20260505171000 | 26 | 137 | 8.0 | 16.1 | 0.00 | 0.00 | 0.00 | 77 | 1008.8 |
| 20260505170500 | 26 | 183 | 8.0 | 16.1 | 0.00 | 0.00 | 0.00 | 77 | 1008.7 |
| 20260505170001 | 26 | 190 | 6.4 | 17.7 | 0.00 | 0.00 | 0.00 | 78 | 1008.8 |
| 20260505165500 | 26 | 217 | 6.4 | 19.3 | 0.00 | 0.00 | 0.00 | 78 | 1008.8 |
| 20260505165000 | 26 | 209 | 8.0 | 19.3 | 0.00 | 0.00 | 0.00 | 78 | 1008.8 |
| 20260505164459 | 26 | 178 | 8.0 | 24.1 | 0.00 | 0.00 | 0.00 | 79 | 1008.8 |
| 20260505164000 | 26 | 161 | 6.4 | 24.1 | 0.00 | 0.00 | 0.00 | 78 | 1008.9 |
| 20260505163500 | 26 | 229 | 6.4 | 16.1 | 0.00 | 0.00 | 0.00 | 79 | 1009.0 |
| 20260505162500 | 26 | 186 | 6.4 | 14.5 | 0.00 | 0.00 | 0.00 | 78 | 1008.9 |
| 20260505162000 | 26 | 179 | 9.7 | 22.5 | 0.00 | 0.00 | 0.00 | 78 | 1008.8 |
| 20260505161001 | 26 | 225 | 8.0 | 33.8 | 0.00 | 0.00 | 0.00 | 79 | 1008.8 |
| 20260505153001 | 25 | 163 | 6.4 | 17.7 | 0.00 | 0.00 | 0.00 | 83 | 1008.9 |
| 20260505152000 | 24 | 202 | 4.8 | 16.1 | 0.00 | 0.00 | 0.00 | 85 | 1008.7 |
| 20260505151500 | 23 | 200 | 6.4 | 19.3 | 0.00 | 0.00 | 0.00 | 85 | 1008.6 |
| 20260505140459 | 22 | 177 | 6.4 | 16.1 | 0.00 | 0.00 | 0.00 | 88 | 1008.4 |
| 20260505124959 | 21 | 198 | 3.2 | 14.5 | 0.00 | 0.00 | 0.00 | 92 | 1008.2 |
| 20260505124459 | 21 | 185 | 4.8 | 16.1 | 0.00 | 0.00 | 0.00 | 92 | 1008.1 |
| 20260505123959 | 21 | 196 | 6.4 | 16.1 | 0.00 | 0.00 | 0.00 | 92 | 1008.1 |
| 20260505123459 | 21 | 193 | 6.4 | 12.9 | 0.00 | 0.00 | 0.00 | 92 | 1008.1 |
| 20260505123000 | 21 | 227 | 4.8 | 12.9 | 0.00 | 0.00 | 0.00 | 92 | 1008.1 |
| 20260505122459 | 21 | 206 | 3.2 | 12.9 | 0.00 | 0.00 | 0.00 | 92 | 1008.3 |
| 20260505121958 | 21 | 176 | 3.2 | 11.3 | 0.00 | 0.00 | 0.00 | 92 | 1008.2 |
| 20260505121459 | 21 | 146 | 4.8 | 17.7 | 0.00 | 0.00 | 0.00 | 92 | 1008.0 |
| 20260505120958 | 21 | 231 | 4.8 | 17.7 | 0.00 | 0.00 | 0.00 | 92 | 1007.8 |
| 20260505120459 | 21 | 209 | 3.2 | 8.0 | 0.00 | 0.00 | 0.00 | 92 | 1007.8 |
| 20260505115958 | 21 | 188 | 3.2 | 8.0 | 0.00 | 0.00 | 0.00 | 92 | 1007.8 |
| 20260505114959 | 21 | 191 | 3.2 | 8.0 | 0.00 | 0.00 | 0.00 | 92 | 1007.8 |
| 20260505114458 | 21 | 153 | 3.2 | 12.9 | 0.00 | 0.00 | 0.00 | 92 | 1007.8 |
| 20260505114001 | 21 | 201 | 3.2 | 11.3 | 0.00 | 0.00 | 0.00 | 92 | 1007.6 |
| 20260505113459 | 20 | 205 | 3.2 | 9.7 | 0.00 | 0.00 | 0.00 | 92 | 1007.7 |
| 20260505112459 | 20 | 210 | 3.2 | 8.0 | 0.00 | 0.00 | 0.00 | 92 | 1007.6 |
| 20260505112000 | 20 | 201 | 3.2 | 12.9 | 0.00 | 0.00 | 0.00 | 92 | 1007.7 |
| 20260505111459 | 20 | 191 | 3.2 | 6.4 | 0.00 | 0.00 | 0.00 | 92 | 1007.6 |
| 20260505110959 | 20 | 203 | 4.8 | 9.7 | 0.00 | 0.00 | 0.00 | 92 | 1007.7 |
| 20260505110459 | 20 | 181 | 4.8 | 11.3 | 0.00 | 0.00 | 0.00 | 92 | 1007.7 |
| 20260505101458 | 20 | 200 | 3.2 | 8.0 | 0.00 | 0.00 | 0.00 | 92 | 1007.7 |
| 20260505100958 | 20 | 211 | 3.2 | 8.0 | 0.00 | 0.00 | 0.00 | 92 | 1008.0 |
| 20260505100458 | 20 | 217 | 3.2 | 8.0 | 0.00 | 0.00 | 0.00 | 92 | 1008.0 |
| 20260505100001 | 20 | 194 | 3.2 | 14.5 | 0.00 | 0.00 | 0.00 | 92 | 1007.9 |
| 20260505095458 | 20 | 177 | 3.2 | 14.5 | 0.00 | 0.00 | 0.00 | 92 | 1007.8 |
| 20260505094959 | 20 | 195 | 3.2 | 11.3 | 0.00 | 0.00 | 0.00 | 91 | 1007.7 |
| 20260505094459 | 20 | 252 | 3.2 | 11.3 | 0.00 | 0.00 | 0.00 | 91 | 1007.7 |
| 20260505093959 | 20 | 194 | 3.2 | 9.7 | 0.00 | 0.00 | 0.00 | 91 | 1007.7 |
| 20260505093500 | 20 | 225 | 3.2 | 9.7 | 0.00 | 0.00 | 0.00 | 91 | 1007.8 |
| 20260505092959 | 20 | 211 | 3.2 | 9.7 | 0.00 | 0.00 | 0.00 | 91 | 1008.0 |
| 20260505092458 | 20 | 205 | 3.2 | 8.0 | 0.00 | 0.00 | 0.00 | 91 | 1008.2 |
| 20260505092000 | 20 | 215 | 1.6 | 6.4 | 0.00 | 0.00 | 0.00 | 91 | 1008.1 |
| 20260505091459 | 20 | 210 | 3.2 | 8.0 | 0.00 | 0.00 | 0.00 | 91 | 1008.1 |
| 20260505090958 | 20 | 181 | 3.2 | 9.7 | 0.00 | 0.00 | 0.00 | 90 | 1008.2 |
| 20260505090459 | 20 | 210 | 3.2 | 9.7 | 0.00 | 0.00 | 0.00 | 90 | 1008.0 |
| 20260505085958 | 20 | 217 | 3.2 | 8.0 | 0.00 | 0.00 | 0.00 | 90 | 1008.0 |
| 20260505085459 | 20 | 226 | 3.2 | 8.0 | 0.00 | 0.00 | 0.00 | 90 | 1008.2 |
| 20260505084458 | 20 | 233 | 1.6 | 8.0 | 0.00 | 0.00 | 0.00 | 89 | 1008.2 |
| 20260505083958 | 20 | 192 | 1.6 | 8.0 | 0.00 | 0.00 | 0.00 | 89 | 1008.3 |
| 20260505083457 | 20 | 204 | 1.6 | 6.4 | 0.00 | 0.00 | 0.00 | 89 | 1008.3 |
| 20260505082959 | 20 | 207 | 3.2 | 8.0 | 0.00 | 0.00 | 0.00 | 89 | 1008.3 |
| 20260505082458 | 20 | 218 | 3.2 | 8.0 | 0.00 | 0.00 | 0.00 | 89 | 1008.5 |
| 20260505081958 | 20 | 211 | 3.2 | 8.0 | 0.00 | 0.00 | 0.00 | 88 | 1008.5 |
| 20260505080958 | 20 | 208 | 3.2 | 8.0 | 0.00 | 0.00 | 0.00 | 88 | 1008.6 |
| 20260505080458 | 20 | 198 | 1.6 | 8.0 | 0.00 | 0.00 | 0.00 | 88 | 1008.8 |
| 20260505075458 | 20 | 207 | 1.6 | 4.8 | 0.00 | 0.00 | 0.00 | 88 | 1008.9 |
| 20260505074459 | 20 | 209 | 1.6 | 8.0 | 0.00 | 0.00 | 0.00 | 88 | 1009.1 |
| 20260505074000 | 20 | 214 | 3.2 | 8.0 | 0.00 | 0.00 | 0.00 | 87 | 1009.1 |
| 20260505073457 | 20 | 223 | 3.2 | 6.4 | 0.00 | 0.00 | 0.00 | 87 | 1009.0 |
| 20260505072956 | 20 | 215 | 3.2 | 8.0 | 0.00 | 0.00 | 0.00 | 87 | 1008.9 |
| 20260505071456 | 20 | 209 | 3.2 | 11.3 | 0.00 | 0.00 | 0.00 | 87 | 1009.2 |
| 20260505070957 | 20 | 242 | 3.2 | 6.4 | 0.00 | 0.00 | 0.00 | 87 | 1009.1 |
| 20260505070458 | 20 | 202 | 3.2 | 11.3 | 0.00 | 0.00 | 0.00 | 86 | 1009.1 |
| 20260505065957 | 20 | 204 | 3.2 | 11.3 | 0.00 | 0.00 | 0.00 | 86 | 1009.1 |
| 20260505065457 | 20 | 228 | 3.2 | 8.0 | 0.00 | 0.00 | 0.00 | 86 | 1009.0 |
| 20260505064958 | 20 | 234 | 4.8 | 12.9 | 0.00 | 0.00 | 0.00 | 86 | 1008.9 |
| 20260505064457 | 20 | 199 | 4.8 | 12.9 | 0.00 | 0.00 | 0.00 | 86 | 1009.1 |
| 20260505063957 | 20 | 204 | 3.2 | 14.5 | 0.00 | 0.00 | 0.00 | 86 | 1009.1 |
| 20260505063456 | 20 | 181 | 4.8 | 19.3 | 0.00 | 0.00 | 0.00 | 86 | 1009.2 |
| 20260505062957 | 20 | 200 | 4.8 | 19.3 | 0.00 | 0.00 | 0.00 | 86 | 1009.3 |
| 20260505062457 | 20 | 162 | 4.8 | 11.3 | 0.00 | 0.00 | 0.00 | 86 | 1009.4 |
| 20260505061956 | 20 | 186 | 4.8 | 14.5 | 0.00 | 0.00 | 0.00 | 86 | 1009.4 |
| 20260505061456 | 20 | 194 | 4.8 | 14.5 | 0.00 | 0.00 | 0.00 | 86 | 1009.5 |
| 20260505060957 | 20 | 163 | 3.2 | 11.3 | 0.00 | 0.00 | 0.00 | 85 | 1009.5 |
| 20260505060456 | 20 | 186 | 3.2 | 6.4 | 0.00 | 0.00 | 0.00 | 85 | 1009.6 |
| 20260505060003 | 20 | 216 | 3.2 | 6.4 | 0.00 | 0.00 | 0.00 | 85 | 1009.5 |
| 20260505055504 | 20 | 184 | 1.6 | 6.4 | 0.00 | 0.00 | 0.00 | 85 | 1009.4 |
| 20260505055004 | 20 | 186 | 3.2 | 6.4 | 0.00 | 0.00 | 0.00 | 85 | 1009.5 |
| 20260505054504 | 20 | 200 | 3.2 | 9.7 | 0.00 | 0.00 | 0.00 | 85 | 1009.7 |
| 20260505054004 | 20 | 211 | 3.2 | 12.9 | 0.00 | 0.00 | 0.00 | 84 | 1009.9 |
| 20260505053504 | 20 | 202 | 3.2 | 9.7 | 0.00 | 0.00 | 0.00 | 84 | 1009.9 |
| 20260505053004 | 20 | 195 | 3.2 | 9.7 | 0.00 | 0.00 | 0.00 | 84 | 1009.9 |
| 20260505052503 | 20 | 175 | 3.2 | 9.7 | 0.00 | 0.00 | 0.00 | 84 | 1009.8 |
| 20260505052004 | 20 | 208 | 3.2 | 11.3 | 0.00 | 0.00 | 0.00 | 84 | 1009.9 |
| 20260505051503 | 20 | 189 | 3.2 | 11.3 | 0.00 | 0.00 | 0.00 | 84 | 1009.9 |
| 20260505051005 | 20 | 180 | 1.6 | 8.0 | 0.00 | 0.00 | 0.00 | 83 | 1010.0 |
| 20260505050504 | 20 | 207 | 1.6 | 11.3 | 0.00 | 0.00 | 0.00 | 83 | 1010.0 |
| 20260505041505 | 21 | 190 | 1.6 | 9.7 | 0.00 | 0.00 | 0.00 | 81 | 1010.4 |
| 20260505041005 | 21 | 254 | 1.6 | 6.4 | 0.00 | 0.00 | 0.00 | 81 | 1010.4 |
| 20260505040005 | 21 | 167 | 3.2 | 11.3 | 0.00 | 0.00 | 0.00 | 80 | 1010.2 |
| 20260505035004 | 21 | 213 | 3.2 | 12.9 | 0.00 | 0.00 | 0.00 | 80 | 1010.3 |
| 20260505034504 | 21 | 213 | 3.2 | 12.9 | 0.00 | 0.00 | 0.00 | 79 | 1010.4 |